ATLAS 5 CENTAUR DEB, 44658

Orbit data source: Space-Track

ATLAS 5 CENTAUR DEB, 44658 is space debris in HEO originally from a launch on Wed, 17 Oct 2018 UTC launched from the Air Force Eastern Test Range (AFETR). Debris objects in space refer to the collection of defunct objects orbiting the Earth. Examples of debris include non-operational satellites, rocket bodies, and fragments generated from explosions, collisions, or faulty payload assembly.

Loading next visibility...
Identifier
44658, 2018-079U
Orbit
HEO
Country
Flag of USUS
Related business
Flag of USUnited Launch Alliance/Lockheed Martin (US)
Manufacturer
ULA Decatur
Mission
Spacecraft
Bus & Motor
Unknown
Mass
Unknown
Launch date (UTC)
2018-10-17 (7 years ago)
Launch vehicle
Unknown
Launch site
Air Force Eastern Test Range (AFETR)
Object type
Payload
Rocket body
Debris
Shape & HBR
Unknown shape, 1.1 m
Radar Cross Section
RCS unknown

Expand to show TLE details & history
Last TLE update: 1 month ago

TLE from 1 month ago
0 ATLAS 5 CENTAUR DEB
1 44658U 18079U   25257.93117343 -.00000195  00000-0  00000-0 0  9990
2 44658  13.4568  52.8463 4729850 274.8758  34.7412  1.81727954 41998
Epoch: 2025-09-14T22:20Z
TLE epoch observation values (Epoch: 2025-09-14T22:20:53.384Z)
Latitude
-0°
Longitude
83.52962°
Altitude
14,766.651 km
Speed
4.863 km/s
True Right ascension
03h 31m 34s
True Declination
0° 00' 00"
Sunlit
Object was in daylight at epoch
Visualization orbit readout
Latitude
Unknown
Longitude
Unknown
Altitude
Unknown
Speed
Unknown
Apparent Right ascension
Unknown
Apparent Declination
Unknown
Sunlit
N/A
Visualization observer readout
Local Sidereal Time
03:20:50
Azimuth
Unknown
Elevation
Unknown
Doppler factor
Unknown
Orbital elements
Apogee altitude
35,406.619 km
Perigee altitude
8,571.909 km
Semi-major axis
28,367.401 km
Eccentricity
0.47299
Inclination
13.4568°
RAAN
52.8463°
Arg. of periapsis
274.8758°
True anomaly
85.20701°
Mean anomaly
34.7412°
Eccentric anomaly
57.63017°
Mean motion
0.45427 °/min
Orbital period
792.48 mins
BSTAR
0
Loading maneuver chart data...
Computing Atmospheric mass density...

Documentation

Showing up to 5 results
|